sat.trackr.live / text

‹ back to catalog

STARLINK-2630

NORAD 48381 · 2021-038AE

PAYLOAD ACTIVE UNKNOWN

§ Identity

Operator
Country
US
Launch date
2021-05-04
Launch site
AFETR
Launch vehicle
Mass (kg)
RCS (m²)

Purposes: comms

External: N2YO · Heavens-Above · Gunter

§ Orbital elements

Epoch: 2026-09-19T05:21:19.492992Z

Period
94.01 min
Inclination
53.1585°
Eccentricity
0.0001452
Mean motion
15.31700727 rev/d
Perigee alt
469.7 km
Apogee alt
471.7 km
Semi-major
6,848.9 km
B*
1.6149e-5
RAAN
167.6831°
Arg perigee
89.0680°
Mean anomaly
271.0488°
Rev number
29,687

§ Raw data

STARLINK-26301 48381U 21038AE  26262.22314228  .00000136  00000+0  16149-4 0  99942 48381  53.1585 167.6831 0001452  89.0680 271.0488 15.31700727296873

JSON: /api/v1/satellites/48381 · /tle

For live sub-satellite position, see the globe view (requires WebGL).

§ Visibility from observer

Set your observer location to see the next 7 days of passes ≥ 10°. The values pass through the URL so the page stays shareable.

No JS? Fill the form by hand. The geolocation button needs JavaScript.